RYR7WK EGHH-LEPA

Flight info

Callsign RYR7WK
Flight time N/A
Altitude 35000
Route SAM Y8 GWC UN859 SOPIL DCT BALAN DCT EVPOK DCT NARAK DCT GAI DCT LOMRA DCT ROCAN DCT IBRAP N13 LORES
Aircraft B738/M-SDE2E3FGHIRWXY/LB1

Departure

Time 2026-05-01 15:29
Airport Bournemouth Airport (EGHH)

Arrival

Time N/A
Airport Palma de Mallorca Airport (LEPA)
Time Latitude Longitude Altitude Speed Heading
2026-05-01 15:08 50.77768 -1.83375 45 ft 0 kts 86°
2026-05-01 15:20 50.77768 -1.83376 45 ft 1 kts 86°
2026-05-01 15:21 50.77765 -1.83413 45 ft 4 kts 73°
2026-05-01 15:21 50.77754 -1.83450 43 ft 4 kts 42°
2026-05-01 15:21 50.77736 -1.83464 40 ft 1 kts 356°
2026-05-01 15:21 50.77735 -1.83464 40 ft 2 kts 356°
2026-05-01 15:23 50.77739 -1.83464 40 ft 2 kts 356°
2026-05-01 15:23 50.77777 -1.83469 43 ft 9 kts 357°
2026-05-01 15:24 50.77868 -1.83478 45 ft 16 kts 356°
2026-05-01 15:24 50.77980 -1.83466 45 ft 16 kts 37°
2026-05-01 15:24 50.78036 -1.83321 45 ft 15 kts 63°
2026-05-01 15:24 50.78087 -1.83181 45 ft 15 kts 53°
2026-05-01 15:25 50.78125 -1.83038 45 ft 14 kts 92°
2026-05-01 15:25 50.78123 -1.82889 45 ft 13 kts 76°
2026-05-01 15:25 50.78152 -1.82797 43 ft 0 kts 50°
2026-05-01 15:27 50.78160 -1.82783 45 ft 4 kts 47°
2026-05-01 15:28 50.78262 -1.82762 46 ft 13 kts 255°
2026-05-01 15:28 50.78222 -1.82970 44 ft 47 kts 255°
2026-05-01 15:28 50.78063 -1.83922 44 ft 129 kts 255°
2026-05-01 15:29 50.77517 -1.87557 1275 ft 184 kts 257°
2026-05-01 15:29 50.77244 -1.89537 2243 ft 189 kts 256°
2026-05-01 15:29 50.78114 -1.93736 3075 ft 237 kts 318°
2026-05-01 15:30 50.80916 -1.95052 3943 ft 278 kts
2026-05-01 15:31 50.85702 -1.85174 7757 ft 284 kts 76°
2026-05-01 15:31 50.86841 -1.79098 9479 ft 294 kts 78°
2026-05-01 15:32 50.88042 -1.72785 10781 ft 315 kts 77°
2026-05-01 15:32 50.89422 -1.65637 11145 ft 363 kts 77°
2026-05-01 15:33 50.91519 -1.54936 11921 ft 407 kts 76°
2026-05-01 15:34 50.93012 -1.47330 13149 ft 411 kts 76°